Temp
23 21 18 21 22 21 22 23 23 24 24 24 23 24 25 27 28 28 29 29 30 30 32 32 32 32 32 32 27 27 25 25 26 25 26 26 26 27 27 27 25 24 24 24
22 21 22 22 22 22 23 22 22 24 25 25 24 23 25 26 27 28 28 29 30 31 31 31 32 32 31 31 27 25 26 25 25 24 25 27 26 27 27 25 24 24 24 23
21 22 23 22 21 20 21 21 22 22 24 24 23 23 23 25 26 27 28 29 30 30 31 31 31 31 30 30 27 24 25 25 24 24 26 27 27 27 25 24 24 24 23 22
22 23 22 21 20 22 20 23 22 22 21 19 22 19 22 23 25 26 27 29 29 31 31 31 31 31 29 30 26 24 23 23 24 25 25 27 27 26 25 24 23 23 23 22
19 20 20 20 20 22 21 22 22 21 20 20 21 20 22 24 24 25 26 27 29 31 31 32 32 32 32 28 25 24 23 24 24 24 26 26 27 26 25 23 22 21 20 20
20 22 21 21 22 22 22 20 21 21 21 18 20 21 21 23 23 26 27 27 29 30 31 31 33 33 32 26 24 24 23 23 23 25 25 26 26 24 23 21 20 19 19 18
20 21 22 22 21 22 20 18 17 16 17 17 21 19 21 23 24 25 27 28 29 30 30 30 32 33 31 26 24 23 23 23 23 22 23 24 23 24 22 21 19 18 18 18
17 17 20 21 20 19 19 18 16 17 18 18 16 15 19 24 25 26 28 29 29 29 29 30 31 33 29 25 24 23 23 23 23 23 23 22 22 22 22 22 19 18 18 17
16 17 19 20 20 15 17 17 19 17 17 17 20 23 24 24 25 25 26 28 29 29 29 29 31 32 29 25 24 23 23 23 23 23 22 22 23 23 21 19 18 18 16 16
15 14 18 20 20 20 19 20 15 16 16 18 21 21 20 21 24 25 26 27 29 30 30 30 32 32 27 24 23 23 22 23 23 22 22 22 20 20 19 18 18 17 16 15
13 11 15 16 16 17 18 16 18 17 17 17 18 19 22 22 23 23 26 27 30 30 31 31 32 31 25 24 22 22 23 23 22 22 21 19 18 19 18 17 16 15 14 15
13 11 12 15 18 19 19 18 17 14 16 19 18 17 20 21 23 24 24 26 27 31 32 33 33 27 23 24 22 22 23 23 22 22 19 19 18 17 17 15 15 14 14 15
10 11 12 16 19 13 17 19 19 18 17 16 16 18 20 21 22 22 22 24 27 30 32 32 27 25 22 22 22 23 22 22 21 20 19 18 17 16 15 15 15 15 15 15
11 9 11 12 15 16 12 14 15 16 16 18 18 16 18 19 19 19 20 22 27 29 30 24 20 19 17 18 21 20 19 18 18 18 17 17 16 15 15 15 15 15 15 15
10 11 12 12 14 15 16 15 16 16 18 17 18 15 16 18 18 19 21 21 23 28 23 21 20 19 18 17 17 17 16 16 16 16 16 16 15 15 15 15 15 15 15 14
9 11 12 14 17 16 16 17 18 18 18 18 18 18 17 19 19 20 21 21 20 23 20 18 19 18 17 17 17 16 15 15 15 15 15 15 15 15 14 15 15 14 14 14
7 9 11 14 18 17 14 15 18 18 20 20 19 20 18 19 18 19 18 16 17 18 18 18 17 16 16 16 16 16 16 15 15 15 15 15 15 15 14 14 14 13 13 12
8 8 10 12 15 15 12 16 15 16 20 21 20 18 19 17 15 16 15 15 15 17 16 16 16 15 15 16 16 16 16 16 16 15 15 15 15 15 14 13 13 12 12 12
10 9 11 13 13 15 16 13 11 12 15 15 17 18 18 15 14 15 14 16 16 16 15 15 15 15 15 16 17 17 17 17 17 17 16 15 15 14 13 13 12 12 12 11
14 11 10 12 15 15 10 11 13 15 13 11 11 14 16 13 15 12 12 13 13 14 14 15 15 15 16 17 17 18 18 17 17 16 16 15 14 14 13 13 12 12 11 11
12 13 12 13 15 12 9 10 13 14 12 8 10 13 13 13 12 11 11 12 12 13 14 15 15 16 16 17 18 18 18 17 16 15 14 14 13 13 12 12 12 12 11 10
10 10 12 13 13 12 8 10 8 9 8 9 11 11 11 11 10 10 11 11 12 12 13 14 15 15 17 17 17 16 16 15 14 13 13 13 13 12 12 12 12 11 11 11
10 8 9 9 9 9 7 7 8 8 11 11 10 10 11 10 10 10 11 11 12 13 14 15 15 16 16 16 15 14 14 13 13 13 12 12 12 12 12 12 13 13 13 13
9 7 8 8 8 7 7 7 8 9 10 10 10 9 10 9 9 9 10 11 11 12 13 14 14 14 14 14 13 13 13 13 12 12 12 10 7 7 9 10 10 11 10 10
7 6 7 8 9 7 8 7 7 8 9 9 9 9 9 9 9 9 9 10 11 12 13 13 13 13 13 13 13 12 12 12 11 9 8 7 7 7 6 5 5 6 7 7
5 6 8 8 6 6 6 6 8 8 8 9 8 8 8 8 8 9 9 10 11 12 12 12 13 12 12 12 12 11 11 10 9 9 8 7 6 5 4 3 4 5 5 6
Height
726 737 747 729 720 725 722 709 708 699 698 701 705 700 690 678 675 677 677 678 676 677 674 677 680 684 688 692 696 706 714 718 728 735 742 745 749 754 758 761 764 769 772 774
726 730 720 717 717 713 708 714 708 694 688 691 695 699 686 681 675 669 669 668 667 665 669 672 674 677 681 689 694 701 713 716 724 733 739 742 747 752 756 759 763 767 772 775
724 716 709 717 718 722 713 713 710 704 692 687 692 692 688 681 670 666 662 659 655 658 660 664 666 667 676 684 691 699 706 715 719 730 735 740 746 751 755 758 763 767 769 773
714 705 711 713 714 706 714 700 704 703 706 717 695 712 692 680 670 664 659 654 651 648 650 653 658 662 671 677 686 698 705 715 719 728 735 740 746 750 755 759 764 771 773 770
723 717 718 715 711 701 706 701 700 701 707 706 692 697 679 665 667 661 655 651 644 640 643 644 649 655 662 672 683 693 702 705 720 727 733 742 747 750 755 761 764 768 770 774
712 704 704 699 696 696 693 705 700 698 698 709 683 687 675 669 663 650 643 642 636 636 639 639 640 648 655 667 680 690 699 707 717 723 726 738 750 754 756 760 764 770 773 777
707 699 686 689 696 689 699 715 718 719 713 700 672 685 667 650 644 641 633 633 630 632 638 638 637 639 650 664 676 686 697 704 714 722 726 727 746 753 756 758 765 768 775 780
722 714 693 690 696 701 697 709 717 705 693 687 696 698 665 633 629 626 620 619 623 631 635 635 632 633 644 661 671 679 690 700 710 719 724 732 738 748 748 758 762 767 776 779
729 716 697 695 694 716 704 705 695 702 701 694 668 640 628 626 623 623 618 613 614 620 628 628 626 627 639 657 666 674 686 695 706 715 722 729 740 746 750 759 762 768 774 777
732 729 702 692 691 689 695 687 710 700 701 684 654 649 656 640 624 617 612 608 598 605 614 617 616 621 634 650 663 677 687 692 701 709 720 732 742 748 753 758 764 768 769 776
743 746 717 710 703 700 693 698 686 691 687 686 672 661 637 637 629 626 608 595 585 592 601 604 609 616 630 648 658 674 682 691 699 708 721 727 735 745 757 764 764 767 769 776
743 744 723 706 685 680 678 685 689 700 686 665 668 668 643 638 628 622 620 597 587 584 588 592 601 617 630 642 655 669 678 688 698 711 717 725 733 735 766 769 765 768 771 779
749 739 723 693 675 697 684 674 670 676 678 679 681 666 643 642 632 625 627 609 595 585 583 589 601 619 630 645 655 666 675 685 701 710 721 732 723 755 769 766 768 771 775 783
741 746 733 716 698 694 706 694 688 683 681 668 667 672 651 650 645 637 630 622 596 588 585 603 621 630 640 654 662 672 683 687 703 711 723 729 752 762 769 767 768 774 780 787
742 731 721 710 697 690 683 685 682 677 666 670 664 676 670 658 646 645 635 623 610 592 605 615 625 633 637 642 641 664 682 693 712 714 726 741 762 765 763 764 774 779 784 791
740 726 712 694 672 672 669 663 662 658 658 657 657 656 656 653 645 642 640 624 622 610 617 620 633 639 647 668 677 674 692 707 710 718 738 756 760 756 760 771 777 782 790 795
745 735 717 685 660 661 671 667 656 651 646 645 650 642 648 649 653 645 651 648 638 625 628 632 645 651 661 671 679 688 699 708 715 732 750 751 752 756 768 774 781 788 795 801
737 737 725 697 675 665 680 665 662 658 635 632 636 645 645 650 658 650 652 655 653 624 637 642 652 662 670 679 688 697 708 715 725 738 742 748 754 762 772 780 787 794 801 806
724 731 717 696 685 672 667 680 688 679 665 658 652 648 648 656 657 652 648 643 639 632 648 652 659 665 676 685 693 700 710 718 727 735 745 751 759 770 779 786 793 800 805 810
709 717 721 702 677 675 704 694 680 665 671 677 678 663 654 661 657 666 662 657 659 654 657 660 667 678 687 696 699 705 717 726 735 743 749 760 770 777 784 790 798 805 811 817
717 708 707 694 679 690 714 701 673 672 682 683 676 662 659 663 669 675 672 665 666 662 665 669 678 690 701 706 710 717 728 738 746 753 760 769 776 782 789 797 804 810 816 820
733 727 709 702 693 695 718 703 709 703 689 683 667 667 668 670 672 683 678 674 673 671 677 680 684 700 710 716 720 730 740 747 754 761 768 776 784 791 798 804 810 815 819 822
733 745 741 738 726 727 731 726 713 699 681 681 678 678 673 673 687 688 683 682 682 682 686 692 695 707 718 726 733 737 749 755 762 769 776 785 792 799 805 810 814 818 821 824
740 749 743 740 731 734 728 721 711 701 693 693 689 687 685 689 695 696 692 689 691 697 700 704 709 719 728 737 745 752 758 764 768 776 785 791 796 803 809 814 818 820 824 828
752 752 743 736 730 730 727 725 716 707 702 700 702 699 698 699 705 704 703 702 704 708 713 717 722 731 741 750 758 765 769 771 775 783 791 798 804 810 817 822 827 830 834 836
757 752 743 735 744 741 734 729 720 713 710 707 708 712 711 710 712 712 713 714 715 719 725 731 736 744 754 761 766 771 777 780 783 790 800 807 814 821 827 831 836 840 842 845
Wind_Speed
16 15 15 21 18 19 23 20 23 19 21 21 19 21 25 22 22 25 24 25 25 26 21 23 30 28 18 15 30 31 31 39 37 33 27 22 23 17 20 18 23 21 17 14
14 16 21 18 24 24 22 20 24 23 22 20 19 25 24 22 23 20 21 22 25 23 24 21 25 30 30 22 28 34 30 40 35 31 27 22 27 21 21 22 19 18 15 13
19 20 17 20 17 18 22 19 22 24 23 23 22 24 23 23 23 25 22 25 22 26 21 21 22 23 31 29 29 35 37 37 34 34 29 25 25 22 21 21 18 16 16 10
18 17 18 15 22 20 23 22 23 22 21 18 20 18 22 22 24 24 26 23 24 21 23 21 22 15 30 30 34 33 33 34 37 36 23 21 19 20 19 21 17 14 13 16
22 21 22 24 23 16 18 16 18 20 19 20 28 13 18 19 24 25 25 24 27 19 21 18 24 21 28 34 35 38 39 43 39 32 22 20 20 19 24 20 22 17 16 15
24 22 22 22 22 21 20 15 21 20 18 17 27 19 21 20 25 24 24 28 25 21 17 16 16 28 30 38 36 35 34 34 31 36 31 19 16 20 22 21 21 20 20 20
19 21 20 20 21 18 13 17 10 7 9 16 18 11 18 23 25 29 24 27 23 17 18 18 18 18 23 34 35 35 36 38 37 31 33 35 23 22 24 23 24 25 25 19
11 7 6 1 16 10 15 12 10 11 11 12 5 9 9 26 23 24 24 24 22 21 19 22 21 18 26 33 37 37 37 37 39 31 31 34 40 26 29 23 29 26 20 22
7 7 12 16 7 2 7 10 19 19 17 15 17 26 17 19 18 23 24 23 28 29 28 28 24 18 30 36 36 36 38 37 40 36 33 29 30 24 26 32 30 27 26 22
6 12 13 16 9 17 20 19 5 8 7 15 16 11 8 13 9 17 22 23 29 30 29 27 23 19 35 38 38 36 38 40 38 36 33 32 32 34 32 31 28 28 29 25
4 5 9 14 9 19 12 11 12 9 8 7 13 6 9 16 14 16 16 21 16 27 29 25 21 17 36 38 40 39 41 40 37 38 36 39 37 35 27 29 29 29 29 25
7 5 11 22 27 24 21 17 16 5 6 12 10 5 10 16 17 12 23 21 16 26 25 22 20 25 26 35 37 40 43 40 40 38 39 40 39 38 27 28 29 29 29 25
2 4 7 10 2 14 9 17 18 14 15 19 12 8 6 12 15 13 13 13 21 8 21 22 21 22 21 27 36 41 43 40 39 40 38 36 43 33 28 29 30 29 28 25
11 3 11 12 20 16 11 14 13 11 9 14 11 11 15 17 16 19 19 19 14 11 9 23 21 17 12 12 28 28 33 41 42 44 41 39 34 32 30 31 31 29 27 25
3 5 12 21 25 23 23 20 20 21 18 14 16 5 7 11 14 15 18 22 19 17 24 21 21 16 19 13 26 41 31 37 40 42 44 39 34 33 32 34 30 29 28 26
3 5 12 23 22 18 22 21 20 22 21 17 17 11 13 8 10 15 17 21 25 8 21 23 22 21 18 25 25 34 41 40 41 43 38 35 33 34 35 32 30 30 27 26
2 3 5 7 14 9 2 9 18 17 18 15 15 12 10 5 7 15 11 15 17 21 20 22 21 20 18 26 32 36 36 42 43 40 35 34 34 36 33 31 31 29 27 25
4 2 3 8 14 1 3 20 18 17 8 12 4 5 4 3 5 12 13 15 19 25 19 20 19 20 28 31 35 40 38 39 40 36 35 33 34 35 32 31 30 27 25 24
6 1 4 4 5 4 9 18 12 11 9 15 14 2 3 3 3 5 17 11 7 20 16 19 29 34 33 34 36 39 37 36 35 34 33 34 34 33 31 30 28 26 24 23
12 10 2 4 5 6 6 24 20 16 3 18 19 18 7 3 4 3 11 14 13 15 20 24 36 35 34 31 38 38 36 34 33 33 35 34 33 32 31 29 27 25 23 22
7 5 4 8 3 4 14 23 18 3 6 20 23 8 7 4 6 5 2 11 13 20 23 35 36 30 29 33 38 36 35 33 35 37 37 35 33 33 31 28 25 25 23 22
5 7 4 5 5 4 22 13 6 9 23 20 9 12 15 15 13 4 5 16 17 21 23 33 35 29 32 35 39 36 35 37 37 38 38 35 32 29 28 27 24 22 20 18
1 2 4 4 4 10 12 11 13 18 4 11 8 10 14 16 11 6 10 17 18 22 27 32 33 33 34 35 35 37 36 38 37 37 36 34 32 28 25 21 18 15 14 14
1 2 3 5 4 13 7 15 16 13 10 11 11 12 14 16 12 9 10 15 17 19 24 34 36 33 33 34 34 35 36 36 38 38 33 30 33 33 31 27 25 26 23 23
2 5 5 4 6 10 6 14 14 10 8 12 12 13 15 15 12 11 11 14 15 23 28 32 33 34 34 35 34 33 35 36 36 36 34 34 36 35 34 33 30 31 25 21
2 3 2 2 6 5 5 13 13 10 9 10 13 14 14 15 12 11 11 13 19 24 30 32 34 35 35 34 33 34 33 35 36 34 30 31 31 31 31 33 38 33 29 25
Wind_Direction
257 237 240 259 263 293 291 284 280 270 254 270 283 291 286 280 236 233 228 243 226 228 236 236 222 237 206 208 161 167 161 160 169 170 183 175 171 182 160 169 164 171 182 186
263 254 261 251 287 284 280 285 281 279 278 276 255 248 263 269 270 260 236 233 242 215 220 230 240 207 190 198 159 165 184 166 169 177 185 176 170 170 161 149 153 164 177 184
277 277 292 277 254 268 270 264 272 285 290 289 279 272 261 268 260 264 253 244 237 232 210 211 228 182 184 196 167 162 170 175 170 180 186 176 168 166 142 150 156 165 167 170
283 287 274 288 288 262 246 250 265 275 283 273 281 274 275 273 245 242 254 230 241 224 226 201 219 209 179 187 164 161 162 168 170 183 183 168 166 156 150 151 157 160 164 141
283 284 282 274 266 285 285 293 283 282 269 279 263 257 265 247 243 258 235 254 226 227 211 220 199 205 188 161 155 162 169 170 177 175 171 171 158 158 152 139 131 140 118 125
275 277 273 264 262 252 268 267 262 267 265 259 256 258 258 250 258 242 223 241 221 220 224 239 209 201 173 150 157 163 167 162 169 167 155 165 168 144 137 138 130 128 119 119
288 288 267 248 260 259 300 248 266 256 233 252 258 275 270 269 242 257 219 229 220 217 217 232 231 183 168 152 161 161 168 163 169 169 169 160 160 172 145 141 135 130 128 130
292 309 360 50 246 262 233 264 244 264 264 287 209 225 237 241 245 243 245 226 206 205 221 231 229 197 156 154 163 166 169 164 170 171 165 166 169 164 147 156 136 132 134 123
317 275 337 309 282 128 289 264 261 276 272 267 271 277 231 292 234 234 252 241 210 206 203 222 223 198 155 161 168 167 168 162 165 159 154 151 154 150 134 127 126 128 127 125
338 286 282 291 310 256 266 269 260 217 272 268 266 313 305 299 268 250 239 255 215 193 193 211 209 190 156 162 160 165 161 163 161 151 149 145 127 125 120 122 125 122 124 119
292 223 282 311 261 266 277 271 236 259 249 272 290 284 308 330 316 327 275 282 202 178 195 203 195 167 149 155 152 166 162 164 152 147 142 128 120 118 113 119 118 116 114 113
326 288 286 278 275 266 256 247 253 234 263 257 275 251 340 332 326 301 308 250 279 182 196 176 174 145 144 154 155 164 166 154 147 142 129 123 120 112 125 122 116 114 108 104
247 247 297 299 216 29 283 263 244 256 267 268 272 283 321 322 316 309 314 252 260 234 184 167 136 151 150 157 161 164 158 144 136 127 122 118 107 122 128 119 115 110 107 105
211 240 239 262 277 293 284 296 290 281 264 272 270 312 320 325 338 326 312 322 275 240 192 114 114 119 121 249 149 152 135 121 124 119 117 107 121 126 128 117 109 108 107 105
162 265 249 259 268 271 269 261 261 262 262 270 284 213 257 294 312 303 302 305 308 269 121 117 123 133 119 71 102 105 91 111 118 114 113 118 129 127 117 108 109 107 103 102
186 262 290 291 280 282 263 251 248 251 255 264 265 262 229 289 310 296 291 322 320 232 123 116 120 117 107 119 118 108 126 118 110 108 113 128 123 112 106 108 106 103 101 98
189 282 301 281 322 330 327 284 263 255 252 251 251 271 151 239 327 292 333 317 302 117 121 116 116 114 111 113 120 113 111 115 112 117 125 119 115 108 108 106 103 100 98 98
163 223 251 283 310 300 250 21 8 329 268 271 253 157 146 10 348 298 321 266 250 115 112 109 113 111 108 110 111 115 116 114 116 119 118 117 109 106 105 104 102 102 101 96
210 203 273 283 292 288 35 2 340 327 312 9 349 230 107 88 338 358 331 95 111 111 114 115 112 109 112 114 115 112 111 111 115 114 113 108 106 107 108 106 104 102 99 92
320 213 218 304 290 12 3 338 323 298 260 347 339 304 128 108 151 333 335 102 98 102 116 113 109 111 114 120 115 112 113 114 110 110 108 108 109 108 106 105 105 105 102 99
330 349 267 310 302 106 357 337 328 5 334 310 300 248 112 121 97 63 282 101 113 104 107 108 107 112 119 121 116 110 111 108 109 107 105 105 103 103 104 106 104 102 103 102
341 325 337 335 342 355 5 344 14 300 294 300 62 101 109 95 74 76 129 112 111 106 105 103 101 105 111 112 111 109 106 108 107 105 104 103 104 104 104 105 107 109 109 112
329 331 311 323 330 344 327 303 301 304 340 68 72 81 99 91 84 97 112 112 106 105 106 105 106 105 101 104 107 106 107 110 110 106 103 103 103 104 105 104 109 117 114 108
271 67 258 316 86 338 336 337 336 348 29 76 74 84 94 95 89 89 90 98 99 101 104 107 105 104 103 104 105 108 113 114 109 106 101 92 85 83 84 89 84 77 63 64
17 313 309 262 313 328 353 344 335 9 25 80 84 87 97 96 89 94 90 97 101 105 106 107 107 106 107 111 112 113 115 113 106 96 92 89 90 91 88 82 75 76 71 82
312 298 306 309 323 292 318 336 345 29 21 76 92 95 90 93 91 92 89 93 102 104 108 107 109 111 113 114 111 110 110 107 103 99 97 97 96 94 93 90 85 80 81 80